Theta_e
308 309 310 310 310 310 310 311 311 309 308 309 310 308 306 304 303 303 305 308 301 296 297 299 300 298 300 299 294 298 294 296 293 288 289 290 289 291 291 289 286 285 283 285 288 286 284 293 295 289 293 298 305 304
306 307 308 309 309 309 310 310 310 308 307 308 309 308 306 305 303 303 302 306 305 295 297 302 302 304 303 304 300 299 295 291 297 290 290 289 289 291 290 285 291 285 286 283 286 287 292 293 291 296 297 302 303 302
307 308 307 308 308 309 309 309 309 307 307 308 309 308 306 305 304 303 303 306 302 296 299 302 303 308 310 309 309 297 300 297 297 300 292 289 287 292 287 286 287 289 290 286 287 290 290 291 294 296 303 302 303 303
306 307 307 308 308 308 308 309 308 307 307 308 308 307 306 305 304 303 302 305 302 297 291 300 308 305 310 311 310 308 305 303 298 298 294 291 289 292 289 289 287 288 287 287 288 290 291 292 294 296 299 300 300 300
305 306 307 307 308 308 308 308 307 307 307 308 308 307 305 304 304 305 306 305 304 298 294 297 303 309 310 310 309 308 305 302 295 294 294 292 293 291 293 291 288 287 285 285 285 288 289 291 294 296 297 296 297 298
305 306 306 307 307 308 308 307 307 306 307 308 308 306 305 304 302 303 300 306 307 304 293 292 303 305 308 309 309 306 305 302 296 296 298 301 299 294 289 289 290 290 291 292 290 291 292 293 294 297 296 296 297 298
305 306 306 307 308 308 307 306 306 306 308 308 306 305 303 302 303 299 299 300 304 302 294 290 297 306 308 308 307 311 309 304 299 300 298 299 296 295 291 287 289 291 293 293 294 293 290 291 291 295 296 297 298 297
304 305 306 306 306 306 306 306 306 307 307 306 304 303 303 302 302 299 304 301 305 299 296 290 295 300 308 302 300 308 307 305 304 300 300 298 297 296 289 288 291 293 291 290 291 293 292 292 293 294 296 296 295 294
304 305 305 305 305 305 305 306 307 306 304 303 302 302 302 300 297 302 305 304 303 298 293 294 292 294 307 302 305 303 308 300 305 298 297 297 293 289 290 290 291 292 290 288 291 291 291 291 291 293 294 294 292 293
303 304 305 304 305 305 305 306 305 303 302 301 299 300 296 301 307 304 300 295 293 293 294 293 300 295 302 302 300 299 305 300 294 299 303 296 293 294 294 294 294 294 292 291 290 289 290 290 290 291 292 294 293 293
303 304 304 305 305 306 306 304 303 301 299 298 296 299 305 306 302 300 295 293 294 291 296 298 299 297 304 298 298 304 297 298 291 296 295 292 291 294 296 295 295 296 296 294 292 293 293 292 291 292 292 294 295 295
301 303 303 304 305 305 305 303 301 299 298 298 300 303 306 300 297 292 291 295 293 292 299 297 299 302 303 308 301 300 296 295 289 300 293 290 296 296 295 295 296 297 295 293 292 293 294 293 294 294 294 295 296 297
300 302 303 303 305 305 305 303 301 300 300 300 296 295 296 296 289 287 284 291 293 299 300 301 299 301 303 303 301 299 292 292 301 292 291 295 299 296 296 295 295 296 295 294 293 294 294 293 295 295 295 297 297 297
299 301 302 303 304 305 303 301 299 299 297 293 292 286 290 288 291 292 292 296 301 301 300 301 299 298 302 298 302 293 299 298 290 288 290 295 299 297 296 296 294 293 294 294 293 293 294 294 294 296 296 296 296 296
298 300 302 302 303 304 302 300 300 298 296 291 293 286 290 295 298 300 300 301 304 302 301 299 301 300 298 297 300 296 292 289 291 292 296 299 300 297 295 295 295 294 294 294 294 293 294 296 295 295 297 297 297 296
298 300 302 302 303 304 300 298 296 296 295 292 293 291 294 294 296 297 299 299 303 302 304 302 298 296 295 296 294 292 291 290 297 300 302 300 298 298 296 296 297 299 299 298 298 296 296 296 296 296 297 297 297 297
298 298 302 303 303 300 299 295 294 291 290 289 291 293 292 293 296 299 300 300 304 302 298 298 292 292 300 295 292 299 297 300 302 301 300 300 297 297 297 297 300 299 299 299 300 300 298 298 298 298 296 297 297 298
296 300 300 302 299 296 294 294 291 290 287 290 288 293 296 297 297 298 301 303 305 302 301 295 299 295 293 291 294 302 303 304 303 303 300 298 298 298 298 297 300 299 299 299 298 299 299 297 296 295 298 298 297 297
299 300 300 299 297 293 290 291 293 288 290 291 294 296 298 298 300 301 302 304 306 308 304 301 296 295 297 300 301 302 305 305 298 298 298 299 298 298 298 299 300 300 299 299 299 298 298 299 298 296 295 297 295 296
299 300 300 299 298 293 290 291 296 290 289 293 297 296 298 298 300 299 300 302 303 302 298 296 296 300 304 306 308 307 306 304 300 296 295 296 297 300 300 300 299 300 300 300 299 296 297 296 297 297 296 296 295 295
298 299 299 297 294 294 293 293 292 293 294 294 297 297 296 299 297 298 299 303 301 298 296 299 301 303 309 308 308 308 307 304 300 298 295 295 298 300 300 300 300 299 298 298 296 296 297 297 297 297 296 295 295 295
296 298 295 295 292 293 292 296 293 296 296 295 296 298 295 295 296 297 301 299 299 300 300 302 302 306 309 308 309 309 305 305 305 300 296 297 296 298 297 298 299 298 298 298 298 298 298 298 298 297 297 297 296 297
297 296 294 293 290 290 289 296 291 293 289 292 297 292 294 295 299 302 298 300 301 304 304 304 306 309 306 307 308 307 307 305 301 301 301 301 299 302 299 299 300 299 299 300 299 299 299 296 296 299 299 298 299 296
297 293 290 289 289 287 294 291 294 292 293 292 291 290 293 296 300 298 294 299 301 304 305 306 308 307 308 307 304 304 306 306 301 303 303 300 299 299 301 300 299 301 300 300 300 298 299 299 296 300 300 300 299 297
287 287 288 285 291 288 287 289 289 290 288 291 290 292 296 300 294 293 293 297 300 301 303 306 306 303 304 306 306 307 309 306 302 301 302 303 301 302 300 300 301 300 302 299 299 300 299 300 301 300 300 300 299 298
283 289 286 288 289 288 289 286 288 289 291 290 291 296 299 296 291 290 298 303 302 302 305 307 307 307 305 306 304 305 308 310 307 303 304 303 303 302 299 298 298 299 302 302 301 300 300 300 301 301 300 299 291 298
284 287 292 295 294 293 290 293 294 293 291 290 295 294 294 288 289 297 304 305 307 309 310 311 310 308 307 307 307 310 313 312 308 306 307 305 306 307 304 300 299 300 302 301 302 301 300 300 301 301 301 301 301 301
290 291 287 290 290 292 289 290 290 290 293 299 297 291 290 292 294 302 304 309 309 310 309 309 309 309 307 306 308 309 309 310 311 311 309 306 308 309 309 306 306 292 302 302 301 301 301 301 301 301 301 301 300 302
289 293 292 289 290 291 291 291 293 297 299 297 295 294 294 299 303 304 306 305 306 308 307 305 308 307 306 305 305 302 306 307 305 301 300 298 299 303 308 306 304 304 303 302 289 296 302 302 302 302 302 302 303 303
289 294 290 290 288 288 294 298 297 300 302 303 301 295 295 300 305 310 309 305 304 304 303 305 303 306 303 302 303 302 302 304 306 305 299 299 300 305 306 307 304 303 304 304 303 303 288 300 297 304 303 304 304 304
295 292 290 291 290 295 299 301 301 301 299 299 300 296 297 301 304 307 308 307 307 307 306 303 302 303 302 302 301 300 299 299 301 303 305 306 305 305 305 308 307 307 306 305 305 305 306 306 306 306 305 305 305 303
292 290 290 289 292 298 301 299 298 295 295 295 296 300 300 299 298 304 308 307 303 302 296 300 301 302 304 304 304 303 292 297 295 296 302 306 305 306 306 306 308 310 308 307 306 307 307 307 307 306 306 306 306 306
293 293 293 293 295 294 297 294 295 294 295 296 297 298 298 298 295 304 309 309 306 304 303 303 304 305 305 302 303 302 297 295 290 285 285 285 286 291 305 305 307 308 308 309 308 308 307 307 308 307 307 308 307 306
Wind_Speed
20 19 18 19 19 18 17 16 14 11 11 10 9 9 8 7 6 7 3 3 8 8 16 12 12 12 11 7 5 12 9 5 3 7 5 6 5 6 6 3 5 5 8 6 7 6 3 25 14 8 11 18 4 14
19 19 19 18 19 18 17 16 13 12 12 11 10 10 10 9 7 8 6 7 4 6 11 19 21 20 21 17 10 5 5 4 4 3 3 4 4 5 10 3 6 2 4 5 5 4 9 12 14 13 18 1 13 15
20 20 19 19 18 19 17 15 14 13 12 11 11 11 11 10 9 10 6 6 6 7 13 11 6 9 12 12 9 4 2 3 5 6 2 2 5 3 4 2 4 5 3 4 6 2 11 13 15 16 11 12 13 15
19 20 21 20 19 19 17 15 14 12 12 10 12 11 10 10 10 10 7 6 4 4 6 5 7 8 10 10 12 12 14 6 2 6 3 3 4 2 2 3 2 2 6 6 4 4 11 8 13 14 10 12 16 15
20 19 20 20 19 19 16 13 12 11 11 11 13 13 11 10 10 10 9 8 4 4 6 11 20 14 10 10 10 11 10 10 1 4 4 2 1 3 2 2 2 2 3 3 3 8 6 7 12 12 10 12 12 17
21 20 20 19 18 17 15 11 11 9 11 12 13 12 10 9 7 9 4 4 6 3 4 6 9 9 8 8 11 12 9 4 3 4 4 2 5 3 3 2 4 8 5 7 3 3 6 7 12 9 11 11 13 16
21 20 19 18 16 9 7 7 8 9 10 11 9 8 7 6 7 6 7 3 3 4 3 6 6 7 7 9 10 3 4 3 4 4 2 3 1 4 2 3 10 11 5 6 1 2 3 10 6 9 11 12 16 16
21 19 16 13 9 6 6 7 9 9 9 8 6 5 6 6 10 8 5 13 7 3 3 5 6 7 3 7 4 3 2 5 5 3 3 3 3 2 1 5 10 6 9 7 7 9 8 8 9 10 10 13 16 15
21 20 14 12 12 9 8 8 10 11 10 7 5 5 5 5 4 2 6 13 3 3 4 5 4 4 6 7 2 3 2 4 2 2 3 3 3 3 4 8 9 8 6 3 6 9 8 10 9 11 12 15 17 15
20 19 14 13 11 9 9 10 11 11 9 5 5 6 5 4 15 12 3 4 4 3 3 7 10 8 8 8 4 4 1 2 2 2 1 1 1 3 3 3 5 4 7 4 5 7 8 10 11 10 12 14 15 13
20 18 16 12 12 10 7 12 13 11 3 2 3 4 6 10 4 5 5 6 7 5 7 8 9 8 4 7 5 3 3 4 3 1 4 0 2 3 4 3 2 3 4 9 8 9 10 10 10 11 12 13 17 16
20 17 16 13 12 14 13 15 15 5 3 2 6 6 4 5 5 5 5 6 8 6 6 7 5 6 5 1 3 2 2 2 3 3 2 1 4 9 3 4 3 6 9 11 10 10 12 13 12 14 14 14 15 17
21 19 15 14 12 13 16 15 13 5 3 3 4 6 4 5 6 7 6 6 5 5 5 4 4 3 5 3 3 3 5 5 5 1 2 4 7 7 5 4 8 8 12 12 11 12 14 14 13 14 16 14 15 15
19 19 16 14 14 10 16 14 10 3 3 5 7 5 7 8 7 8 9 8 3 4 5 6 5 2 5 5 2 5 2 4 3 2 1 4 6 8 8 6 8 8 9 12 13 13 13 13 12 13 14 14 12 13
19 20 17 16 13 12 17 14 10 4 3 5 6 7 10 9 8 3 6 4 2 2 5 4 5 6 3 5 3 3 2 4 1 2 3 5 7 10 9 8 8 9 10 11 13 12 13 14 13 14 13 12 12 9
18 19 13 14 12 16 18 13 3 3 3 4 8 7 7 5 6 7 6 7 4 4 7 4 6 4 5 3 5 6 3 0 1 2 4 6 8 11 10 9 8 11 13 16 16 16 13 14 16 16 17 15 11 11
17 5 8 10 17 22 16 3 3 6 4 5 6 6 9 12 7 6 7 6 5 5 5 4 6 4 2 3 5 3 2 3 5 3 2 5 10 11 10 9 7 11 11 11 13 18 14 11 11 13 14 15 14 12
6 6 9 11 14 7 2 3 3 4 7 7 6 10 13 8 7 7 6 6 2 4 6 5 6 5 3 4 4 2 6 5 6 5 5 8 11 10 9 10 7 12 12 13 11 12 16 15 11 8 12 12 13 12
10 5 10 18 8 4 4 5 4 5 8 5 11 12 9 6 6 6 7 5 4 3 4 5 5 5 4 5 7 6 4 3 4 5 7 9 10 9 10 12 10 13 13 11 12 9 9 11 11 11 10 10 10 10
15 11 15 15 8 3 5 4 5 5 5 6 8 8 8 6 6 7 8 8 7 4 6 6 6 4 1 2 2 3 4 7 7 7 7 6 5 9 12 10 9 11 11 12 9 11 10 9 9 9 9 9 10 10
4 8 14 8 3 4 3 3 4 6 6 5 5 5 5 5 8 8 7 8 5 6 8 7 5 0 2 3 4 6 5 7 6 7 8 8 5 9 9 8 11 10 9 8 9 8 9 10 9 9 10 10 11 10
2 11 3 5 4 4 5 7 4 4 5 5 5 5 7 7 6 8 7 7 8 8 9 8 2 4 1 2 1 4 8 9 9 11 10 10 9 9 9 8 9 11 11 9 7 9 9 9 9 10 10 10 10 10
7 2 3 5 5 4 6 4 6 5 4 3 3 4 5 5 3 4 4 6 8 9 4 6 3 1 2 4 7 11 11 12 8 10 9 7 5 8 10 10 9 9 8 12 9 6 7 10 12 12 11 11 11 11
6 5 5 5 7 4 4 5 4 3 5 8 4 6 4 4 4 4 6 4 6 8 4 3 4 3 3 3 4 4 8 7 9 8 8 8 7 8 8 9 8 9 9 7 10 9 8 8 9 10 12 12 12 13
4 6 4 5 5 5 5 5 8 6 6 7 10 5 2 3 4 5 5 6 7 6 3 5 5 5 3 4 4 3 9 9 10 11 8 6 6 8 10 10 10 9 11 11 12 14 13 13 12 12 12 12 13 14
5 7 5 5 4 6 5 4 6 8 7 5 6 3 4 4 3 2 1 1 1 2 4 2 3 1 2 4 6 5 6 7 8 10 10 10 9 9 11 11 9 10 11 11 11 13 15 14 12 15 13 13 9 13
3 5 5 4 3 4 5 5 5 5 5 5 2 4 4 4 4 4 3 7 4 5 4 4 3 2 2 2 3 3 4 7 11 10 10 10 8 10 9 11 13 10 10 12 12 13 13 14 13 13 12 12 12 11
3 3 5 5 4 4 4 3 4 4 2 2 3 3 1 4 4 3 3 5 4 4 6 5 6 6 7 5 5 4 1 2 7 8 7 6 6 4 9 9 10 15 12 12 12 13 13 13 13 13 13 13 12 10
5 4 4 6 6 3 4 4 3 2 2 2 3 3 2 3 3 2 6 6 6 5 6 4 6 5 7 7 6 5 5 4 9 11 13 9 9 7 9 6 12 13 12 13 8 11 16 13 14 13 14 12 12 11
5 4 4 5 4 4 2 1 1 1 3 3 4 2 1 2 3 4 6 6 3 5 5 3 1 3 3 5 6 6 5 5 5 6 7 8 11 11 9 8 12 12 11 13 12 9 7 9 7 10 11 11 11 12
1 3 4 4 4 3 3 1 3 3 1 2 3 5 4 5 4 4 3 4 5 4 5 6 4 6 7 7 7 7 6 5 6 6 4 6 6 10 10 8 10 11 12 14 13 12 11 9 10 12 14 14 15 13
4 5 4 4 3 4 0 2 3 2 2 2 2 4 6 4 6 4 4 3 2 6 6 6 6 6 7 5 6 9 7 2 4 4 3 5 6 8 9 8 7 6 10 15 14 13 15 14 11 13 14 17 16 16
4 6 6 3 2 3 4 3 3 4 3 3 5 3 3 1 5 3 3 5 5 6 6 5 4 4 8 6 6 5 7 3 3 4 4 4 4 3 5 8 12 6 7 8 10 9 11 11 9 12 12 12 12 12
Wind_Direction
300 296 294 293 289 286 284 275 254 256 264 270 237 211 220 239 245 270 304 179 292 277 292 275 282 284 284 283 300 318 334 356 304 357 341 346 310 331 327 54 359 333 318 343 325 352 0 4 343 9 315 308 49 82
302 296 292 290 288 285 283 276 244 233 253 255 229 209 216 227 230 261 275 172 201 259 287 311 286 270 264 275 294 307 274 284 315 3 309 306 293 308 329 342 24 338 358 305 332 331 333 324 321 311 293 18 72 91
306 301 294 288 287 286 283 278 233 228 243 255 223 207 214 220 224 243 286 306 267 277 277 233 257 214 210 233 234 242 202 234 299 356 300 278 279 321 320 346 287 346 31 257 312 124 333 329 337 336 22 76 90 102
309 303 298 292 287 287 282 275 222 229 242 248 214 208 215 225 235 242 252 296 302 307 277 312 206 237 219 222 222 226 261 254 217 286 235 255 276 56 308 298 301 331 308 318 270 7 320 349 358 346 47 77 87 94
308 308 302 294 290 285 279 241 218 227 248 253 202 201 204 224 238 254 259 257 233 261 304 307 304 264 237 231 238 234 241 254 103 280 231 243 274 306 249 247 110 316 319 329 325 333 287 335 5 3 59 77 87 95
314 311 309 301 290 283 275 211 220 234 244 236 199 200 210 220 231 260 235 216 198 186 282 292 358 273 237 227 241 237 214 199 170 270 272 221 183 265 285 312 29 345 267 265 306 353 347 16 19 31 68 81 83 89
317 315 315 312 301 279 221 230 237 235 250 197 195 201 214 216 241 262 357 17 124 126 255 282 277 196 224 258 252 240 123 170 223 253 215 283 170 217 268 333 333 317 322 3 108 222 44 26 23 46 75 87 87 89
321 319 319 321 315 284 257 246 252 266 175 173 170 202 223 239 265 262 243 157 167 216 229 270 275 261 155 291 290 169 120 207 219 260 271 329 337 293 297 351 323 3 72 42 37 57 72 70 51 59 86 101 101 94
324 324 317 314 306 285 263 254 275 148 141 162 175 214 217 235 226 26 92 147 179 292 281 241 265 289 195 278 288 58 270 257 183 265 283 329 345 12 357 331 337 37 59 71 67 80 71 73 69 70 85 97 96 99
325 324 313 312 305 282 266 278 153 128 128 162 229 217 203 194 116 129 169 152 191 219 231 263 267 261 298 303 31 297 272 283 252 174 309 295 70 306 51 2 338 76 116 131 89 89 91 88 83 75 76 94 99 92
323 323 322 311 306 280 281 143 139 131 138 220 236 245 84 149 176 209 221 208 177 217 211 234 243 255 258 285 341 8 8 329 278 107 317 73 355 90 33 74 62 37 111 93 89 91 93 93 97 92 84 86 107 107
321 321 320 311 304 301 188 168 158 162 201 307 301 258 155 204 232 233 223 209 196 245 182 218 202 238 268 302 269 160 255 255 274 327 325 247 72 95 75 71 83 114 113 108 113 101 99 92 93 101 100 94 94 105
319 319 313 306 297 303 183 177 182 63 57 270 242 229 191 222 224 217 221 214 203 226 185 207 226 241 178 261 171 219 222 230 284 84 295 39 86 113 113 101 96 90 112 116 120 107 102 102 100 101 105 104 116 115
312 312 310 311 297 220 168 160 158 154 261 239 212 244 221 208 223 214 237 252 149 116 181 226 258 240 228 178 224 237 74 305 231 281 256 90 109 118 121 111 115 111 114 122 122 118 114 118 116 114 109 111 110 119
308 306 295 289 271 191 160 158 170 190 261 249 245 235 217 244 268 285 260 297 177 178 248 259 277 269 184 259 204 200 200 242 218 258 65 85 120 128 131 133 131 134 132 131 134 129 130 131 123 119 125 123 128 143
303 301 272 248 233 176 143 121 118 203 237 240 251 262 272 288 285 265 238 247 159 210 250 263 263 221 230 230 218 217 234 21 176 78 45 108 140 134 136 142 173 171 154 155 151 139 147 146 142 140 138 133 139 140
302 244 340 305 154 141 137 114 182 206 229 244 235 237 268 283 288 259 246 250 213 239 236 248 234 192 250 243 242 83 320 29 31 52 94 123 142 136 138 158 158 145 130 127 131 135 134 118 124 132 134 137 142 136
260 279 290 159 122 104 118 221 220 223 241 249 257 239 232 239 260 266 261 267 234 238 244 253 307 243 227 262 356 319 56 66 27 62 99 118 128 143 148 169 174 141 139 137 143 131 135 138 136 131 133 134 130 127
267 277 275 154 126 135 188 204 234 250 230 242 243 252 266 265 258 261 284 247 245 207 279 267 257 263 306 355 3 11 81 89 119 124 128 128 141 154 159 177 169 139 143 142 140 143 145 159 137 148 150 155 143 142
268 252 195 151 144 227 216 215 208 255 264 222 238 249 256 249 246 222 228 236 232 216 227 230 257 289 53 273 339 63 90 106 136 137 135 137 168 174 161 158 146 138 139 145 156 141 154 137 151 147 158 144 145 142
172 157 142 143 217 250 260 231 226 244 261 263 268 235 251 236 229 241 227 218 220 228 248 263 254 184 30 8 356 79 118 132 161 155 152 155 162 146 143 144 153 148 152 148 152 149 150 154 151 152 141 160 147 158
127 140 114 195 237 236 245 235 246 284 263 261 277 247 249 227 215 221 220 206 227 237 229 239 180 222 234 290 35 100 133 137 138 140 162 136 161 159 156 174 173 159 152 159 160 168 156 150 151 149 164 146 158 147
108 217 175 189 227 225 260 242 241 232 253 259 250 249 231 235 217 152 204 226 227 241 217 240 159 337 257 127 111 147 151 146 149 156 156 149 142 167 158 173 199 161 161 153 164 176 165 145 153 166 145 163 141 131
209 194 206 200 211 242 226 210 236 256 241 231 222 243 236 216 123 206 235 219 211 205 193 173 185 229 208 120 147 176 157 150 152 166 159 156 152 197 185 171 181 176 168 157 152 165 174 180 173 157 163 157 147 160
193 182 209 218 225 234 229 224 214 229 243 222 230 247 191 163 221 221 225 199 192 193 192 183 220 165 167 127 143 192 157 164 173 175 171 163 172 193 186 182 166 174 155 172 183 174 170 175 182 165 171 160 158 167
217 193 198 212 204 224 225 243 215 219 233 229 227 221 185 198 240 196 83 148 267 94 95 191 211 206 226 139 152 181 184 163 169 176 163 170 210 201 174 178 179 171 175 182 180 170 171 169 179 170 171 157 156 172
240 209 205 231 251 268 271 264 256 263 249 227 209 202 215 170 228 82 45 40 58 56 59 65 55 83 72 326 313 354 173 171 177 186 176 172 206 223 203 179 177 174 179 187 181 177 176 176 175 174 167 163 171 178
279 273 228 215 218 227 269 268 238 254 297 335 265 220 324 19 72 38 55 47 61 68 68 77 80 60 46 26 359 353 295 157 106 133 132 157 207 221 276 181 164 149 176 183 180 180 180 180 174 175 169 167 172 180
242 235 240 250 224 239 247 255 279 25 40 305 323 44 66 32 17 84 83 72 67 71 90 65 69 92 95 72 43 34 353 157 156 161 164 161 178 214 250 203 147 169 175 170 180 182 180 178 173 177 178 178 176 185
231 192 236 228 204 241 246 217 343 357 9 5 89 117 205 214 127 135 114 127 128 120 119 114 233 308 91 51 84 76 30 18 346 194 179 183 183 199 211 211 165 178 169 166 172 144 124 157 161 186 188 191 193 189
207 191 247 243 247 249 73 31 57 69 83 167 93 123 142 125 163 201 185 163 147 155 142 146 112 49 33 29 21 25 55 25 1 1 354 134 147 180 204 205 191 178 169 169 179 172 172 185 191 199 199 205 204 205
192 208 235 243 228 101 346 26 41 69 71 168 246 177 147 166 108 76 33 54 122 89 57 54 58 49 41 28 20 90 94 34 1 347 331 153 165 172 196 209 210 202 195 174 180 182 185 197 192 192 196 205 208 200
201 226 232 274 235 126 53 39 319 95 53 162 144 146 163 146 79 82 54 53 48 62 72 71 69 58 68 47 38 77 107 105 61 41 39 38 50 44 174 186 211 203 216 209 187 181 193 215 205 197 198 202 209 207